Home > Weather > Drøbak > Past weeks

Flag for Norway Past Weather in Drøbak, Norway — Yesterday and Last 2 Weeks

Now
54 °F

Cool.


Feels Like: 52 °F
Forecast: 46 / 64 °F
Wind: 6 mph from Northwest

Location: Statfjord B

Current Time: Aug 29, 2016 at 7:52:07 AM

Latest Report: Aug 29, 2016 at 6:50 AM


Visibility: N/A

Pressure: 29.95 "Hg

Humidity: 88%

Dew Point: 50 °F

Location of DrøbakLocation

Past Weather in Drøbak — Graph

°F

Drøbak Temperature Yesterday

Maximum temperature yesterday: 55 °F (at 12:20 AM)
Minimum temperature yesterday: 54 °F (at 5:20 AM)
Average temperature yesterday: 55 °F

High & Low Weather Summary for the Past Weeks

 TemperatureHumidityPressure
High63 °F (Aug 17, 10:20 AM)100% (Aug 14, 8:50 PM)30.30 "Hg (Aug 14, 8:50 PM)
Low50 °F (Aug 18, 5:50 AM)63% (Aug 17, 6:50 AM)29.68 "Hg (Aug 26, 12:20 PM)
Average55 °F90%30.03 "Hg
* Reported Aug 14 6:20 AM — Aug 29 6:20 AM, Drøbak, Weather by CustomWeather, © 2016

Note: Actual official high and low records may vary slightly from our data, if they occured in-between our weather recording intervals... More about our weather records

Advertising

Drøbak Weather History for the Previous 24 Hours

Scroll right to see more
 ConditionsComfort  
Time TempWeatherWind HumidityBarometerVisibility
6:20 AM
Mon, Aug 29
54 °FPassing clouds.8 mph88%29.95 "HgN/A
5:50 AM54 °FPassing clouds.9 mph88%29.95 "HgN/A
5:20 AM54 °FPassing clouds.8 mph88%29.95 "HgN/A
4:50 AM54 °FPassing clouds.9 mph88%29.95 "HgN/A
4:20 AM54 °FPassing clouds.9 mph88%29.95 "HgN/A
3:50 AM54 °FPassing clouds.9 mph88%29.95 "HgN/A
3:20 AM54 °FPassing clouds.9 mph88%29.95 "HgN/A
2:50 AM54 °FPassing clouds.10 mph88%29.95 "HgN/A
2:20 AM54 °FCool.10 mph88%29.95 "HgN/A
1:50 AM54 °FCool.10 mph88%29.98 "HgN/A
1:20 AM54 °FCool.12 mph88%29.98 "HgN/A
12:50 AM54 °FCool.12 mph88%29.98 "HgN/A
12:20 AM54 °FCool.12 mph82%29.98 "HgN/A
11:50 PM
Sun, Aug 28
54 °FCool.10 mph88%29.98 "HgN/A
11:20 PM54 °FCool.10 mph88%29.98 "HgN/A
10:50 PM54 °FCool.12 mph88%29.98 "HgN/A
10:20 PM54 °FCool.12 mph88%29.98 "HgN/A
9:50 PM54 °FCool.13 mph88%29.98 "HgN/A
9:20 PM54 °FCool.13 mph88%29.98 "HgN/A
8:50 PM55 °FCool.14 mph88%29.98 "HgN/A
8:20 PM55 °FCool.13 mph88%29.98 "HgN/A
7:50 PM55 °FPassing clouds.13 mph88%29.98 "HgN/A
7:20 PM55 °FPartly sunny.12 mph88%29.98 "HgN/A
6:50 PM55 °FPartly sunny.10 mph88%29.98 "HgN/A
6:20 PM55 °FPartly sunny.12 mph88%29.98 "HgN/A
5:50 PM55 °FPartly sunny.12 mph88%29.98 "HgN/A
5:20 PM55 °FPartly sunny.10 mph88%30.01 "HgN/A
4:50 PM55 °FPartly sunny.8 mph88%30.01 "HgN/A
4:20 PM55 °FPartly sunny.9 mph88%30.01 "HgN/A
3:50 PM55 °FScattered clouds.9 mph88%30.01 "HgN/A
3:20 PM55 °FPartly sunny.8 mph88%30.01 "HgN/A
2:50 PM55 °FScattered clouds.6 mph88%30.01 "HgN/A
2:20 PM55 °FPartly sunny.7 mph88%30.01 "HgN/A
1:50 PM55 °FPartly sunny.7 mph88%30.01 "HgN/A
1:20 PM55 °FPartly sunny.6 mph88%30.01 "HgN/A
12:50 PM55 °FPartly sunny.6 mph88%30.01 "HgN/A
12:20 PM55 °FPartly sunny.6 mph88%30.01 "HgN/A
11:50 AM55 °FPartly sunny.7 mph88%30.01 "HgN/A
11:20 AM55 °FPartly sunny.6 mph88%30.04 "HgN/A
10:50 AM55 °FPartly sunny.8 mph88%30.04 "HgN/A
10:20 AM55 °FOvercast.8 mph88%30.04 "HgN/A
9:50 AM55 °FOvercast.8 mph88%30.04 "HgN/A
9:20 AM55 °FPartly sunny.8 mph88%30.04 "HgN/A
8:50 AM54 °FPartly sunny.9 mph94%30.04 "HgN/A
8:20 AM54 °FPassing clouds.10 mph94%30.04 "HgN/A
7:50 AM54 °FScattered clouds.10 mph94%30.04 "HgN/A
7:20 AM54 °FPartly sunny.10 mph94%30.04 "HgN/A
Weather by CustomWeather, © 2016

See weather overviewHow to use our weather pages